Location: Drainage Ditch Number 129
(43.1416°N, 93.7399°W)
Time: 02:24:50
(UTC+00:00)

Daily predictions for brighter satellites

Satellite Brightness Start Highest point End
(mag) Time Altitude Azimuth Time Altitude Azimuth Time Altitude Azimuth
NOSS 3-2 (C) 4.2 02:00:41 10° NW 02:08:23 89° ENE 02:17:03 10° SE
Resurs 01 Rocket 2.5 02:10:06 10° SE 02:14:08 35° ENE 02:18:10 10° N
Cosmos 1437 3.8 02:14:16 10° NNE 02:16:33 22° ENE 02:18:49 10° SE
Cosmos 1408 2.6 02:13:52 10° S 02:17:31 88° W 02:21:10 10° N
NOSS 2 (A) 4.2 02:15:40 10° NNW 02:18:18 60° NE 02:20:40 10° SE
Cosmos-2242 3.5 02:16:13 10° NNW 02:20:29 64° W 02:24:41 10° S
Cosmos 1825 Rocket 3.8 02:17:33 10° SSW 02:21:53 76° W 02:26:14 10° N
RESURS DK-1 4.0 02:20:15 10° SE 02:22:48 16° ESE 02:25:22 10° ENE
Cosmos 2098 Rocket 4.3 02:23:18 10° ESE 02:24:12 11° E 02:25:07 10° ENE
ATLAS 3B R/B 4.1 02:19:10 10° NNW 02:25:14 30° NE 02:31:28 10° E
BREEZE-M DEB (TANK) 4.0 02:22:45 10° NW 02:25:31 41° NNE 02:32:18 10° E
CZ-4C R/B 4.4 02:21:57 10° W 02:26:22 29° NW 02:31:33 10° NNE
CENTAUR R/B 3.7 02:18:58 10° NW 02:27:11 65° WSW 02:35:58 10° SSE
USA 267 4.3 02:23:08 10° ENE 02:28:00 22° ESE 02:32:51 10° S
Cosmos 1633 4.1 02:29:12 10° SE 02:31:48 19° E 02:34:26 10° NE
ISS -1.2 02:29:41 10° NW 02:32:12 19° N 02:34:42 10° NE
SPOT 1/Viking Rocket 4.4 02:28:39 10° SE 02:33:20 36° ENE 02:38:04 10° N
Meteor 2-2 Rocket 4.4 02:28:05 10° N 02:33:52 60° ENE 02:39:29 10° SSE
Cosmos 1634 Rocket 4.2 02:28:02 10° N 02:34:21 82° W 02:40:34 10° S
Cosmos 44 Rocket 3.8 02:30:37 10° S 02:35:29 44° ESE 02:40:26 10° NE
SL-16 R/B 4.4 02:36:29 10° NNE 02:38:25 12° NE 02:40:22 10° ENE
ERS-2 2.1 02:35:59 10° NNE 02:39:38 87° E 02:43:16 10° SSW
ARIANE 5 R/B 4.2 02:38:33 11° ESE 02:41:44 21° ENE 02:45:04 10° NNE
Ariane Rocket 3.2 02:39:15 10° S 02:44:19 75° WSW 02:49:25 10° NNW
SPOT 5 4.4 02:44:08 11° ESE 02:46:53 18° ENE 02:49:49 10° NNE
USA 276 4.4 02:45:40 10° WNW 02:48:20 24° N 02:51:00 10° NE
CZ-2C R/B 4.2 02:45:02 10° NNE 02:49:18 38° E 02:53:28 10° SSE
Cosmos 1242 Rocket 2.6 02:46:30 10° NNW 02:50:07 79° W 02:53:40 10° S
OAO 2 Rocket 4.2 02:45:48 10° WSW 02:50:12 31° S 02:53:27 15° SE
Cosmos 783 Rocket 4.5 02:45:49 10° S 02:50:55 64° ESE 02:56:05 10° NNE
Cosmos 2221 2.6 02:48:09 10° N 02:52:25 62° E 02:56:12 13° SSE
IRIS 4.4 02:49:59 10° W 02:52:37 52° S 02:55:21 16° ESE
USA 307 4.0 02:50:23 10° WNW 02:54:16 34° SW 02:57:40 12° SSE
Cosmos 371 Rocket 4.4 02:57:58 10° N 03:02:12 30° ENE 03:05:07 17° ESE
ERBS 3.2 03:00:41 10° NNW 03:03:43 36° NE 03:05:39 18° E
Cosmos 1697 Rocket 2.7 02:59:10 10° NNW 03:04:53 90° NNW 03:09:29 16° SSE
Terra 3.3 03:04:43 15° ESE 03:07:17 23° ENE 03:10:58 10° NNE
IGS 5A 3.9 03:04:24 10° S 03:08:28 59° W 03:12:35 10° NNW
Cosmos 1606 2.7 03:05:04 10° N 03:08:49 65° E 03:11:14 21° SSE
Cosmos 2082 Rocket 2.1 03:05:55 10° SSW 03:11:27 66° ESE 03:17:04 10° NNE
Cosmos 2278 4.2 03:07:19 10° NNW 03:12:45 46° ENE 03:16:22 20° SE
SPOT 3 Rocket 3.7 03:09:28 12° S 03:14:22 75° WSW 03:19:37 10° NNW
Cosmos 1833 Rocket 3.3 03:09:38 10° SW 03:15:12 60° WNW 03:20:48 10° NNE
BREEZE-M R/B 4.3 03:13:04 10° SSW 03:17:24 20° SSE 03:17:24 20° SSE
Cosmos 773 Rocket 4.0 03:13:24 10° SSW 03:18:38 89° WNW 03:23:51 10° NNE
Cosmos 1782 4.5 03:19:19 10° NNE 03:22:14 19° ENE 03:23:15 17° E
Cosmos 2151 3.2 03:23:49 25° SSE 03:25:55 49° E 03:30:02 10° NNE
Cosmos 2360 Rocket 4.4 03:26:21 10° NNE 03:28:48 13° NE 03:31:15 10° ENE
Centaur D AC-29 4.4 03:20:29 10° W 03:29:08 14° WSW 03:33:30 10° SSW
Cosmos 1842 Rocket 4.3 03:28:32 10° NNW 03:32:53 50° W 03:36:31 14° SSW
GP-B 3.5 03:28:53 10° NNE 03:33:11 46° E 03:34:52 31° SE
Cosmos 1092 Rocket 4.1 03:29:20 20° SSE 03:33:37 57° E 03:39:45 10° NNE
BREEZE-M DEB (TANK) 3.9 03:33:27 10° W 03:35:54 28° NNW 03:37:31 11° NE
COSMOS 2406 4.4 03:33:29 10° SW 03:38:51 43° WNW 03:44:18 10° NNE
Meteor 2-3 Rocket 3.9 03:36:27 24° SSE 03:39:44 56° E 03:45:17 10° NNE
Cosmos 2369 3.9 03:34:15 10° NNW 03:39:52 67° WSW 03:43:19 24° S
ERS-1 Rocket 3.0 03:40:52 30° SSE 03:43:21 69° ENE 03:48:22 10° N
Cosmos 1076 Rocket 4.0 03:39:35 12° SSW 03:43:34 59° W 03:47:53 10° N
Cosmos 1151 Rocket 4.2 03:40:03 10° NNE 03:43:47 27° ENE 03:44:42 25° E
Spot 2 Rocket 3.5 03:41:45 25° S 03:44:48 81° WSW 03:49:56 10° NNW
BREEZE-M DEB (TANK) 2.9 03:47:05 10° WNW 03:50:24 80° NNE 03:55:45 21° ESE
Resurs 01 Rocket 3.7 03:47:10 10° SSW 03:50:40 23° W 03:54:12 10° NW
Okean 3 Rocket 4.5 03:50:13 30° ESE 03:50:42 31° E 03:54:40 10° NNE
Cosmos 1980 Rocket 2.2 03:45:23 10° NNW 03:51:00 75° WSW 03:53:53 30° S
BREEZE M DEB (TANK) 3.6 03:48:52 10° SW 03:52:14 57° SE 04:09:27 10° ENE
Cosmos 2026 Rocket 4.0 03:49:08 26° SSE 03:52:51 64° E 03:59:06 10° NNE
ATLAS 2AS CENTAUR R/B 3.7 03:49:23 10° SW 03:57:08 56° NW 04:04:43 10° NNE
Cosmos 2322 Rocket 3.4 03:53:32 10° N 03:58:28 30° NE 04:00:59 21° E
Cosmos 1627 Rocket 4.5 03:54:38 25° S 03:58:30 74° E 04:04:49 10° NNE
Cosmos 1538 Rocket 4.1 03:53:58 11° SSW 03:58:59 79° WNW 04:04:13 10° NNE
H-2A R/B 4.0 03:55:47 10° NNE 03:59:44 39° E 03:59:53 39° ESE
RESURS DK-1 3.4 03:56:25 10° SW 04:00:26 46° WNW 04:04:28 10° NNE
Cosmos 158 Rocket 3.8 03:58:13 25° SSW 04:01:14 79° ESE 04:06:29 10° NNE
Cosmos 1271 Rocket 2.8 03:58:34 10° N 04:02:32 66° E 04:03:10 55° SE
Cosmos 2098 Rocket 4.4 04:03:00 13° WSW 04:04:53 23° WNW 04:07:28 10° NNW
ISS -2.4 04:06:36 10° NW 04:09:43 34° NNE 04:10:34 29° NE
USA 267 3.1 04:05:02 10° NE 04:11:37 82° SE 04:18:10 10° SW
Cosmos 1933 3.7 04:11:57 10° NNW 04:15:57 59° W 04:16:53 45° SSW
ATLAS 3B R/B 2.8 04:09:31 10° NW 04:16:40 80° WSW 04:20:00 36° SSE
ARIANE 5 R/B 3.6 04:16:06 28° SSW 04:17:54 41° W 04:22:10 10° NNW
Cosmos 2292 Rocket 4.4 04:16:19 41° SSE 04:18:15 66° E 04:25:13 10° NNE
SL-16 R/B 2.4 04:18:12 10° NNW 04:23:49 59° ENE 04:25:32 41° ESE
SPOT 5 3.4 04:23:22 34° SW 04:24:39 43° W 04:28:48 10° NNW
USA 276 4.0 04:22:24 10° NW 04:25:09 26° NNE 04:25:54 24° NE
Cosmos 1408 Rocket 4.3 04:25:28 37° E 04:25:28 37° E 04:29:12 10° NNE
Cosmos 304 Rocket 3.7 04:21:04 10° NNW 04:25:53 84° WSW 04:26:50 58° S
Cosmos 2219 Rocket 4.5 04:23:04 10° NNE 04:25:58 14° NE 04:28:51 10° ENE
Cosmos 1553 Rocket 3.9 04:25:31 10° N 04:31:36 73° E 04:33:26 46° SSE
Cosmos 1655 Rocket 4.4 04:32:55 40° SE 04:34:22 47° E 04:40:26 10° NNE
Cosmos 2266 Rocket 4.4 04:37:31 40° ESE 04:38:35 44° E 04:44:23 10° NNE
Cosmos 220 Rocket 4.5 04:36:18 10° N 04:40:30 47° ENE 04:40:38 47° ENE
USA 234 3.5 04:41:01 28° ESE 04:44:37 63° NNE 04:51:05 10° NW
Terra 2.6 04:43:36 35° SW 04:44:46 42° W 04:49:18 10° NNW
COBE Rocket 4.2 04:44:51 45° E 04:45:09 46° ENE 04:49:36 10° N
Cosmos 923 Rocket 4.2 04:43:33 36° SW 04:45:45 71° WNW 04:51:07 10° NNE
Cosmos 1862 3.4 04:47:45 67° NE 04:47:45 67° NE 04:51:19 10° N
Cosmos 1515 Rocket 3.8 04:43:16 10° N 04:47:35 56° ENE 04:47:35 56° ENE
Meteor 2-16 Rocket 4.4 04:50:09 52° SE 04:51:22 64° E 04:57:22 10° NNE
Cosmos 1812 3.0 04:51:02 10° NNW 04:54:26 64° NW 04:54:26 64° NW
SL-27 R/B 4.4 04:57:02 23° NE 04:57:02 23° NE 04:58:39 10° NNE
ALOS 2 3.9 04:56:16 28° ENE 04:56:21 28° ENE 05:00:06 10° N
Cosmos 1766 Rocket 4.3 04:56:00 41° WSW 04:56:51 47° WNW 05:01:07 10° N
Cosmos 1417 Rocket 4.4 04:51:42 10° N 04:58:04 86° W 04:59:44 53° S
Cosmos 1782 4.1 04:55:01 10° NNW 04:58:37 32° W 04:58:50 32° W
S3M 4.0 04:52:37 10° N 04:59:02 80° E 05:00:35 54° SSE
Cosmos 2056 Rocket 3.6 04:54:36 10° NNW 04:59:59 66° ENE 05:00:39 60° ESE
Cosmos 1833 4.4 05:07:05 54° ESE 05:07:09 54° ESE 05:12:47 10° NNE
Cosmos 2333 Rocket 3.5 05:02:50 10° N 05:07:49 31° NE 05:09:37 26° E
IRIDIUM 114 4.5 05:04:12 10° N 05:09:21 57° E 05:09:35 56° E
Cosmos 1328 Rocket 4.3 05:06:44 10° NNW 05:10:59 44° W 05:11:06 44° W
Gbstr 26 Del rocket 3.2 05:07:14 10° NW 05:10:48 62° N 05:10:48 62° N
Cosmos 2360 Rocket 2.2 05:08:20 10° NNW 05:13:57 66° ENE 05:14:45 58° ESE
IRIDIUM 103 4.3 05:13:18 10° N 05:18:32 69° E 05:18:43 69° E
Cosmos 1371 Rocket 4.0 05:15:34 10° NNW 05:20:56 74° WSW 05:21:15 71° SW
Cosmos 1680 Rocket 4.4 05:20:48 31° WSW 05:22:48 45° WNW 05:27:52 10° N
Cosmos 1805 Rocket 4.2 05:31:03 48° NE 05:31:03 48° NE 05:34:36 10° NNE
IRIDIUM 106 4.2 05:31:36 10° N 05:36:50 82° W 05:36:58 81° WSW
Cosmos 1500 Rocket 4.1 05:42:38 54° NW 05:42:38 54° NW 05:46:34 10° N
Cosmos 2322 Rocket 2.7 05:37:21 10° NW 05:42:39 43° WSW 05:42:47 43° WSW
ISS -0.7 05:43:23 10° WNW 05:43:31 11° WNW 05:43:31 11° WNW
USA 267 4.5 05:48:17 10° NE 05:54:16 40° NNW 06:00:15 10° W
Cosmos 2285 Rocket 4.0 05:50:53 10° NNW 05:57:10 70° ENE 05:58:13 59° ESE
Cosmos 292 Rocket 4.2 05:52:52 10° NNW 05:56:55 56° WNW 05:56:55 56° WNW
Cosmos 2228 Rocket 3.7 05:56:30 10° NNW 06:00:03 50° NW 06:00:03 50° NW
Cosmos 2315 Rocket 4.1 05:55:18 10° NNW 06:01:32 64° W 06:02:23 58° SW
Cosmos 1048 Rocket 4.1 06:04:18 66° ENE 06:04:18 66° ENE 06:08:55 10° NNE
Meteor 1-27 Rocket 4.1 05:59:16 10° NNW 06:04:40 50° W 06:04:57 50° WSW
Cosmos 2333 4.0 05:59:43 10° NNW 06:05:22 86° WSW 06:05:26 85° SW
COSMOS 2428 3.0 05:59:51 10° NNW 06:05:29 56° ENE 06:06:19 51° E
SL-16 R/B 3.8 06:03:18 10° NW 06:07:23 21° W 06:07:23 21° W
Cosmos 2219 Rocket 2.1 06:05:18 10° NNW 06:10:56 75° ENE 06:11:15 72° E
Cosmos 494 Rocket 4.2 06:13:22 60° ENE 06:13:22 60° ENE 06:17:53 10° NNE
Thor Agena Rocket 3.6 06:10:41 10° NNE 06:15:18 63° ENE 06:15:18 63° ENE
Cosmos 1666 Rocket 4.1 06:17:56 55° NNE 06:17:56 55° NNE 06:21:27 10° N
Cosmos 1633 Rocket 3.8 06:18:12 50° NE 06:18:12 50° NE 06:21:35 10° NNE
Sich 1 3.9 06:22:40 45° NW 06:22:40 45° NW 06:26:15 10° N
Okean 1 4.4 06:19:30 10° N 06:22:18 44° N 06:22:18 44° N
SL-08 ROCKET BODY 4.2 06:24:29 76° S 06:25:00 90° E 06:31:08 10° N
USA 234 3.8 06:28:20 41° WSW 06:28:20 41° WSW 06:33:56 10° WNW
COSMOS 2455 2.9 06:27:35 63° WSW 06:28:27 73° WNW 06:34:30 10° NNE
Cosmos 1666 4.4 06:31:32 30° NE 06:31:32 30° NE 06:33:51 10° NNE
SL-08 R/B 4.3 06:30:04 73° S 06:30:45 89° ESE 06:37:00 10° N
ALOS 2 4.3 06:33:40 25° WNW 06:33:40 25° WNW 06:36:24 10° NW
Cosmos 1452 Rocket 3.9 06:27:44 10° NNW 06:32:21 54° W 06:32:21 54° W
Cosmos 489 Rocket 4.5 06:32:46 63° SW 06:33:44 75° WNW 06:40:07 10° NNE
CZ-3B R/B 3.2 06:29:39 10° NW 06:33:35 36° NW 06:33:35 36° NW
NOSS 0 Rocket 4.3 06:30:44 10° NNW 06:36:55 59° ENE 06:38:37 44° ESE
Cosmos 1862 Rocket 4.1 06:37:12 10° N 06:40:41 56° N 06:40:41 56° N
Meteor 1-18 Rocket 4.1 06:37:53 10° NNW 06:43:48 77° W 06:44:05 75° SW
Geosat 4.1 06:45:59 64° WNW 06:45:59 64° WNW 06:50:30 10° NNW
Cosmos 1745 Rocket 3.8 06:45:31 70° SSE 06:46:15 82° E 06:52:32 10° N
Meteor 2-9 4.4 06:47:51 86° WSW 06:47:54 87° W 06:53:19 10° N
ATLAS 5 CENTAUR R/B 2.7 06:46:10 10° NNW 06:51:43 62° NE 06:54:21 35° ESE
Cosmos 2333 Rocket 2.9 06:46:54 10° NW 06:51:37 41° W 06:51:37 41° W
Cosmos 1703 Rocket 4.5 06:51:30 10° N 06:55:22 42° ENE 06:55:22 42° ENE
Lacrosse 5 3.3 06:57:56 26° E 06:57:56 26° E 07:01:00 10° ENE
Meteor 1-11 Rocket 4.4 06:56:39 39° ESE 06:57:14 40° E 07:02:23 10° NNE
Cosmos 2360 Rocket 4.0 06:53:39 10° WNW 06:56:30 17° W 06:56:30 17° W
Cosmos 1980 4.0 06:55:29 10° NNW 07:01:07 61° ENE 07:02:27 47° ESE
Resurs 1-4 Rocket 3.4 06:58:15 10° NE 07:02:47 28° E 07:03:26 27° ESE
SL-16 R/B 3.8 07:00:09 18° ESE 07:03:49 34° ENE 07:09:16 10° N
Cosmos 1110 Rocket 4.3 06:59:35 10° NNW 07:04:23 56° W 07:04:23 56° W
EO 1 Del DPAF 4.3 07:02:39 10° NNE 07:05:12 42° N 07:05:12 42° N
Nadezhda 1 Rocket 4.0 07:02:40 10° NNW 07:09:02 69° W 07:09:56 61° SW
Cosmos 1331 Rocket 4.4 07:09:44 10° NNW 07:14:16 49° W 07:14:16 49° W
CZ-4 R/B 3.9 07:11:16 10° NNE 07:16:15 70° ESE 07:16:20 70° ESE
Meteor 1-14 Rocket 4.5 07:16:29 50° W 07:16:59 52° WNW 07:22:27 10° N
NOSS 3-1 (C) 4.4 07:10:07 10° NW 07:17:29 46° WSW 07:18:38 44° SW
ARGOS Delta rocket 3.7 07:13:49 10° NNE 07:18:22 77° ENE 07:18:22 77° ENE
Cosmos 2297 Rocket 2.1 07:18:52 70° SSE 07:19:21 75° ESE 07:25:01 10° NNE
Cosmos 2242 Rocket 3.7 07:16:03 10° N 07:20:03 71° NNE 07:20:03 71° NNE
Cosmos 2237 Rocket 2.1 07:19:41 10° NNW 07:25:24 87° ENE 07:26:22 63° SSE
USA 229 DEB 4.0 07:21:47 10° NW 07:29:01 58° WSW 07:30:34 50° SSW
Meteor 1-13 Rocket 4.2 07:23:13 10° N 07:29:05 83° E 07:30:08 61° SSE
USA 229 4.0 07:21:53 10° NW 07:29:08 58° WSW 07:30:43 50° SSW
ASTEX 1 3.3 07:29:44 71° ESE 07:30:05 75° E 07:35:00 10° N
Cosmos 2227 Rocket 2.2 07:29:32 62° SSE 07:30:11 68° ESE 07:35:49 10° NNE
ADEOS Rocket 3.9 07:29:12 20° ESE 07:32:32 38° ENE 07:37:33 10° N
Cosmos 1743 3.5 07:39:45 46° ENE 07:39:45 46° ENE 07:43:01 10° NNE
Cosmos 1869 Rocket 3.5 07:39:47 81° ENE 07:39:47 81° ENE 07:44:13 10° N
CZ-2D R/B 2.4 07:35:58 10° NNE 07:41:17 60° E 07:42:22 50° SE
Cosmos 2181 Rocket 4.0 07:34:56 10° N 07:41:20 81° E 07:43:19 47° SSE
Meteor 2-4 Rocket 4.5 07:36:31 10° NNW 07:41:55 38° W 07:42:17 37° W
Cosmos 1340 Rocket 3.8 07:43:12 37° NW 07:43:12 37° NW 07:46:13 10° N
Cosmos 1269 Rocket 4.2 07:42:11 53° W 07:42:51 57° WNW 07:48:04 10° NNE
ADEOS II 3.5 07:38:27 10° NE 07:43:02 29° E 07:44:44 24° SE
SL-16 R/B 3.0 07:43:43 10° NNW 07:49:13 49° ENE 07:53:48 15° SE
COSMOS 2428 4.2 07:45:03 10° NW 07:48:18 21° W 07:48:18 21° W
NOSS 3-1 (A) 4.4 07:42:02 10° NW 07:49:25 47° WSW 07:51:23 41° SSW
Meteor 1-23 Rocket 4.3 07:46:13 10° N 07:51:55 73° E 07:53:54 42° SSE
Helios 1A 3.5 07:53:57 49° WNW 07:53:57 49° WNW 07:57:27 10° NNW
Cosmos 2219 Rocket 4.1 07:51:00 10° WNW 07:52:56 14° W 07:52:56 14° W
Okean 3 3.5 07:52:02 10° NNW 07:56:06 72° WNW 07:56:06 72° WNW
Cosmos 2263 Rocket 4.1 07:54:29 15° SE 07:56:59 20° E 08:01:02 10° NE
Okean 1-7 4.0 07:54:33 10° NNW 07:57:45 35° WNW 07:57:45 35° WNW
CZ-4C R/B 4.3 07:52:52 10° NNW 07:59:27 38° NE 08:07:01 10° ESE
Cosmos 2221 Rocket 4.4 07:55:30 10° N 07:59:55 48° ENE 08:01:25 34° SE
Timation 1 Rocket 4.2 07:58:54 53° SSW 08:00:26 90° ESE 08:06:27 10° NNE
Cosmos 1992 Rocket 3.9 07:59:09 10° NNW 08:04:26 90° WSW 08:05:57 48° SSE
NOSS 2-2 (D) 4.5 07:59:05 10° NW 08:04:40 87° SW 08:12:32 10° SSE
Cosmos 2344 4.4 08:04:50 24° SSE 08:08:20 36° ESE 08:15:01 10° NE
Meteor 1-29 4.4 08:07:46 10° NE 08:10:41 28° E 08:10:46 28° E
Helios 1B rocket 2.3 08:10:25 10° NNE 08:14:32 77° ESE 08:14:58 68° SSE
UNK 3.6 08:14:59 59° SSW 08:15:47 75° WSW 08:20:28 10° NNW
Cosmos 2219 3.8 08:16:32 36° WSW 08:18:22 48° WNW 08:23:56 10° NNE
Cosmos 1238 Rocket 3.9 08:18:43 25° ESE 08:19:05 26° E 08:21:53 10° NNE
Meteor 2-12 Rocket 4.4 08:16:51 40° S 08:19:13 88° E 08:25:24 10° N
Cosmos 1842 3.7 08:17:34 10° N 08:21:23 56° E 08:22:21 42° SE
Nadezhda 3 Rocket 4.4 08:15:24 10° N 08:21:44 62° E 08:26:34 18° SSE
BREEZE-M DEB (TANK) 4.4 08:30:27 24° ESE 08:30:27 24° ESE 08:31:43 10° E
Cosmos 2084 Rocket 3.9 08:25:38 10° NW 08:29:02 43° W 08:29:02 43° W
IDEFIX/ARIANE 42P 3.3 08:28:31 10° NNE 08:33:31 46° E 08:36:25 23° SSE
Timation 2 Rocket 4.2 08:31:10 34° WSW 08:33:33 54° WNW 08:39:32 10° NNE
Cosmos 1536 4.5 08:34:02 21° WNW 08:34:02 21° WNW 08:37:08 10° NNW
ATLAS 5 CENTAUR R/B 3.4 08:31:17 10° WNW 08:35:47 27° WSW 08:35:47 27° WSW
Cosmos 1378 Rocket 4.0 08:33:00 10° N 08:37:20 57° E 08:39:54 23° SSE
Cosmos 2251 Rocket 3.6 08:36:33 41° SW 08:38:19 67° WNW 08:43:38 10° NNE
Cosmos 2082 3.8 08:36:22 38° SW 08:38:34 69° WNW 08:44:18 10° NNE
Lacrosse 5 2.4 08:37:07 30° W 08:39:21 52° NW 08:44:19 10° NE
Resurs 1-4 Rocket 2.8 08:37:45 10° N 08:42:40 39° WNW 08:44:30 30° WSW
Cosmos 1908 Rocket 4.3 08:42:20 24° SSE 08:44:37 46° E 08:48:47 10° NNE
Cosmos 1356 Rocket 3.8 08:44:46 32° SSE 08:46:23 56° E 08:50:19 10° NNE
Cosmos 2184 Rocket 4.2 08:44:11 33° SW 08:46:51 55° WNW 08:53:02 10° N
SL-16 R/B 3.0 08:45:15 32° SW 08:47:16 41° W 08:53:05 10° NNW
Cosmos 1733 Rocket 3.4 08:50:26 39° SW 08:51:37 51° WNW 08:55:59 10° N
Cosmos 1295 Rocket 4.4 08:49:06 28° SSW 08:52:35 83° W 08:58:44 10° N
BREEZE-M DEB (TANK) 4.1 08:45:45 23° SW 08:53:06 74° SSE 08:56:54 10° ENE
Cosmos 2154 Rocket 4.0 08:50:40 29° SSW 08:53:56 71° W 09:00:09 10° N
SL-8 R/B 3.8 08:53:11 37° SSW 08:54:50 59° SSE 08:59:34 10° ENE
DELTA 2 DEB (DPAF) 4.1 08:53:13 22° SSE 08:56:04 89° ENE 09:00:32 10° NNW
Cosmos 1140 Rocket 3.6 08:54:55 27° S 08:57:46 72° ESE 09:03:00 10° NNE
Meteor 1-21 4.2 08:55:10 10° NNW 09:00:58 83° W 09:05:54 15° S
Cosmos 2297 Rocket 4.0 09:00:40 12° W 09:04:01 20° NW 09:08:07 10° N
MSX 4.1 08:59:58 10° NNE 09:05:41 68° ESE 09:10:10 17° S
Okean 2 3.3 09:02:43 10° NNW 09:06:53 71° W 09:09:08 26° S
Cosmos 44 4.1 09:02:04 10° NNW 09:07:15 55° NE 09:12:07 10° SE
BREEZE-M DEB (TANK) 2.9 09:04:31 10° WNW 09:08:12 59° N 09:11:03 10° E
CZ-4C R/B 3.7 09:04:26 10° SSE 09:08:23 68° ENE 09:12:37 10° N
Cosmos 2237 Rocket 4.0 09:06:04 10° WNW 09:08:09 13° W 09:08:09 13° W
ARIANE 5 R/B 3.4 09:05:47 10° NNE 09:10:47 47° E 09:15:40 11° S
Cosmos 2227 Rocket 3.9 09:11:21 13° W 09:14:46 21° NW 09:19:01 10° N
Cosmos 1603 4.2 09:10:48 10° NNW 09:16:22 61° ENE 09:21:56 10° SE
BREEZE-M DEB (TANK) 4.2 09:15:41 13° WNW 09:17:18 26° N 09:20:21 10° ENE
Meteor 1-28 Rocket 3.7 09:16:25 31° SW 09:17:28 39° W 09:21:00 10° NNW
Milstar 3 4.5 09:15:44 13° S 09:18:01 15° SSE 09:21:31 10° SE
ADEOS Rocket 3.7 09:16:08 23° SW 09:18:10 29° W 09:22:56 10° NW
CZ-2D R/B 3.8 09:17:01 10° NNW 09:20:53 21° WNW 09:23:40 14° W
ADEOS II 2.9 09:17:57 10° N 09:22:45 37° WNW 09:25:40 21° WSW
IRS-1D 4.0 09:21:30 10° N 09:26:11 44° WNW 09:29:10 21° SW
Cosmos 1782 Rocket 3.7 09:23:30 15° S 09:27:05 75° E 09:31:28 10° NNE
Cosmos 1805 4.3 09:26:59 10° SSE 09:30:40 43° E 09:34:24 10° NNE
SL-8 Rocket 4.0 09:24:57 12° S 09:30:47 90° NNW 09:36:59 10° N
IRS-1C 4.1 09:26:19 10° NNE 09:31:42 90° W 09:36:27 13° SSW
Iridium 4 Rocket 4.4 09:26:43 10° NNW 09:31:46 38° W 09:35:31 18° SW
Cosmos 2227 4.2 09:27:46 19° SSW 09:31:54 83° WNW 09:37:33 10° NNE
SL-16 R/B 3.2 09:28:28 10° NW 09:33:00 25° WSW 09:35:34 18° SW
Cosmos 2366 rocket 4.2 09:27:14 10° S 09:33:34 79° E 09:39:57 10° N
Cosmos 1975 4.2 09:33:02 19° WSW 09:34:40 25° WNW 09:38:03 10° NNW
KORONAS-FOTON 3.9 09:31:25 10° N 09:35:22 79° E 09:39:16 10° S
ATLAS CENTAUR R/B 1.2 09:33:49 21° SSW 09:36:13 74° ESE 09:40:09 10° NE
NOSS 3-3 (A) 3.9 09:32:01 19° SW 09:36:15 77° NW 09:42:45 10° NE
NOSS 3-3 (C) 3.9 09:32:09 19° SW 09:36:21 78° NW 09:42:51 10° NE
Cosmos 676 Rocket 4.2 09:32:40 14° SSW 09:37:18 78° ESE 09:42:40 10° NNE
Cosmos 2263 Rocket 2.4 09:36:12 18° SW 09:40:23 60° WNW 09:46:02 10° NNE
Iridium 45 4.5 09:38:41 16° SSW 09:41:25 66° W 09:44:54 10° N
Cosmos 1707 3.5 09:39:19 10° NNW 09:42:47 33° W 09:45:07 17° SSW
Cosmos 1461 3.8 09:41:30 17° WSW 09:44:42 41° NW 09:48:56 10° NNE
Cosmos 407 Rocket 4.2 09:41:19 17° SW 09:45:02 41° WNW 09:50:02 10° N
CZ-4C R/B 3.1 09:41:09 10° NW 09:48:32 65° WSW 09:56:56 10° SSE
ALOS 3.8 09:44:39 10° NNE 09:48:56 35° E 09:53:12 10° SSE
Spot 1 4.2 09:47:48 10° S 09:51:50 47° W 09:55:48 10° NNW
GEOS 3 Rocket 3.6 09:46:51 10° SE 09:52:13 80° SW 09:57:34 10° NW
Meteor 2-20 4.4 09:46:17 10° NNW 09:52:26 77° W 09:58:35 10° S
Cosmos 2341 Rocket 4.4 09:51:38 12° SSW 09:57:05 46° WNW 10:03:03 10° N
Cosmos 1733 3.3 09:53:35 10° S 09:57:25 80° E 10:01:17 10° N
Cosmos 2218 Rocket 4.1 09:53:02 10° SSW 09:59:22 67° W 10:05:42 10° N
Cosmos 1763 Rocket 4.2 09:54:13 10° NNW 09:59:30 62° ENE 10:04:44 10° SSE
Cosmos 1766 3.7 09:55:50 10° S 09:59:39 63° E 10:03:31 10° NNE
SL-08 R/B 3.4 09:54:49 10° S 09:59:43 66° WSW 10:04:40 10° NNW
USA 281 4.1 09:57:49 10° SE 10:04:10 55° ENE 10:10:34 10° NNW
Cosmos 1727 Rocket 4.1 09:59:05 10° N 10:05:20 87° E 10:11:38 10° S
Cosmos 1300 Rocket 3.5 10:03:10 10° S 10:07:29 89° ESE 10:11:53 10° N
USA 290 2.9 10:05:13 10° NNW 10:08:25 60° ENE 10:11:38 10° SSE
Meteor 1-15 Rocket 4.4 10:02:59 10° S 10:08:55 86° E 10:14:50 10° N
Cosmos 1975 Rocket 3.4 10:07:58 10° NNW 10:12:12 46° W 10:16:21 10° SSW
Cosmos 1484 Rocket 4.4 10:09:05 10° NNE 10:12:44 35° E 10:16:24 10° SSE
Cosmos 1943 3.4 10:07:19 10° NW 10:12:47 49° WSW 10:18:14 10° S
IDEFIX/ARIANE 42P 3.9 10:08:43 10° NNW 10:12:48 24° WNW 10:16:51 10° WSW
Cosmos 1340 3.3 10:11:13 10° NNW 10:14:39 34° W 10:18:03 10° SSW
CZ-2C R/B 2.2 10:12:02 10° N 10:16:37 78° WNW 10:21:12 10° SSW
SL-24 R/B - RUBIN 2 3.6 10:12:45 10° NW 10:17:42 71° WSW 10:22:09 10° SSE
Cosmos 1626 2.3 10:15:06 10° NNW 10:18:42 51° W 10:22:16 10° S
Cosmos 1400 Rocket 3.1 10:16:54 10° SSW 10:20:38 48° WNW 10:24:27 10° N
Cosmos 1900 4.5 10:17:22 10° SW 10:22:20 67° NW 10:27:17 10° NNE
Cosmos 2344 4.1 10:15:16 10° WSW 10:22:25 48° NW 10:30:03 10° NNE
Lacrosse 5 4.0 10:19:37 10° WNW 10:23:20 20° NNW 10:27:03 10° NNE
Cosmos 1674 3.8 10:21:46 10° NNW 10:24:58 25° W 10:28:08 10° SW
USA 215 3.4 10:21:02 10° NE 10:27:36 86° NW 10:34:09 10° SW
Cosmos 1315 Rocket 3.5 10:24:14 10° S 10:28:16 59° E 10:32:16 10° NNE
SL-19 R/B 4.4 10:26:51 10° SSE 10:32:27 82° WSW 10:38:23 10° NNW
